Flag for Australia Weather past 2 weeks in Darwin, Northern Territory, Australia

Now
66 °F

Passing clouds.


Feels Like: 66 °F
Forecast: 66 / 84 °F
Wind: 7 mph from South

Location: Darwin Airport

Current Time: Jul 5, 2015 at 7:19:34 AM

Latest Report: Jul 5, 2015 at 6:30 AM


Visibility: N/A

Pressure: 29.95 "Hg

Humidity: 88%

Dew point: 63 °F

Location of DarwinLocation

Historic Weather in Darwin — Graph

°F

Darwin temperature yesterday

Maximum temperature yesterday: 88 °F (at 3:00 PM)
Minimum temperature yesterday: 64 °F (at 5:00 AM)
Average temperature yesterday: 74 °F

Past Weeks' High & Low Weather Summary

 TemperatureHumidityPressure
High90 °F (Jun 20, 4:30 PM)100% (Jun 24, 4:30 AM)30.09 "Hg (Jun 24, 4:30 AM)
Low61 °F (Jul 5, 5:30 AM)10% (Jun 20, 3:30 PM)29.83 "Hg (Jul 4, 3:00 PM)
Average76 °F54%29.98 "Hg
* Reported Jun 20 5:30 AM — Jul 5 6:00 AM, Darwin, Weather by CustomWeather, © 2015

Note: Actual official high and low records may vary slightly from our data, if they occured in-between our weather recording intervals... More about our weather records

Advertising

Darwin weather history for previous 24 hours

 ConditionsComfort  
Time TempWeatherWind HumidityBarometerVisibility
6:00 AM
Sun, Jul 5
63 °FClear.No wind88%29.92 "Hg10 mi
5:30 AM61 °FClear.6 mph94%29.92 "Hg10 mi
5:00 AM63 °FClear.5 mph88%29.92 "Hg10 mi
4:30 AM64 °FClear.5 mph94%29.92 "Hg10 mi
4:00 AM64 °FClear.6 mph88%29.92 "Hg10 mi
3:30 AM64 °FClear.5 mph88%29.92 "Hg10 mi
3:00 AM64 °FClear.6 mph88%29.92 "Hg10 mi
2:30 AM68 °FClear.6 mph78%29.92 "Hg10 mi
2:00 AM72 °FClear.7 mph69%29.92 "Hg10 mi
1:30 AM72 °FClear.8 mph69%29.92 "Hg10 mi
12:30 AM72 °FClear.7 mph69%29.92 "Hg10 mi
12:00 AM68 °FClear.6 mph78%29.92 "Hg10 mi
11:30 PM
Sat, Jul 4
66 °FClear.No wind83%29.95 "Hg10 mi
11:00 PM66 °FClear.2 mph83%29.95 "Hg10 mi
10:30 PM66 °FClear.7 mph78%29.95 "Hg10 mi
10:00 PM68 °FClear.6 mph78%29.95 "Hg10 mi
9:30 PM68 °FClear.5 mph78%29.95 "Hg10 mi
9:00 PM70 °FClear.5 mph73%29.92 "Hg10 mi
8:30 PM72 °FClear.5 mph69%29.92 "Hg10 mi
8:00 PM73 °FClear.6 mph65%29.92 "Hg10 mi
7:30 PM77 °FClear.6 mph54%29.89 "Hg10 mi
7:00 PM77 °FSunny.7 mph54%29.89 "Hg10 mi
6:30 PM79 °FSunny.8 mph48%29.89 "Hg10 mi
6:00 PM81 °FSunny.12 mph45%29.86 "Hg10 mi
5:30 PM81 °FSunny.12 mph45%29.86 "Hg10 mi
5:00 PM82 °FSunny.10 mph40%29.83 "Hg10 mi
4:30 PM84 °FSunny.12 mph35%29.83 "Hg10 mi
4:00 PM82 °FSunny.12 mph37%29.83 "Hg10 mi
3:30 PM84 °FSunny.13 mph37%29.86 "Hg10 mi
3:00 PM88 °FSunny.13 mph25%29.83 "Hg10 mi
2:30 PM86 °FSunny.7 mph22%29.86 "Hg10 mi
2:00 PM86 °FSunny.10 mph19%29.89 "Hg10 mi
1:30 PM86 °FSunny.10 mph19%29.89 "Hg10 mi
1:00 PM86 °FSunny.12 mph19%29.92 "Hg10 mi
12:30 PM84 °FSunny.13 mph23%29.92 "Hg10 mi
12:00 PM82 °FSunny.15 mph26%29.95 "Hg10 mi
11:30 AM81 °FSunny.17 mph32%29.95 "Hg10 mi
11:00 AM81 °FSunny.17 mph30%29.98 "Hg10 mi
10:30 AM79 °FSunny.16 mph32%29.98 "Hg10 mi
10:00 AM79 °FSunny.16 mph34%29.98 "Hg10 mi
9:30 AM75 °FSunny.15 mph39%29.98 "Hg10 mi
9:00 AM73 °FSunny.13 mph41%30.01 "Hg10 mi
8:30 AM72 °FSunny.10 mph41%29.98 "Hg10 mi
8:00 AM70 °FSunny.8 mph50%29.98 "Hg10 mi
7:30 AM68 °FClear.9 mph53%29.98 "Hg10 mi
7:00 AM68 °FClear.10 mph49%29.95 "Hg10 mi
Weather by CustomWeather, © 2015

See weather overviewHow to use our weather pages